#timestamp,LO_Frequency,Hit,StdDev 
1680555615.3,286046996.3,N
1680555635.1,286046999.3,N
1680555636.0,286046999.3,N
1680555655.8,286046997.8,N
1680555675.7,286046996.5,N
1680555695.5,286046999.0,N
1680555715.3,286046997.6,N
1680555735.2,286047001.1,N
1680555755.0,286046997.4,N
1680555755.9,286046997.4,N
1680555775.8,286047001.6,N
1680555795.6,286047010.0,Y
1680555815.4,286047009.9,P
1680555835.3,286047008.2,N
1680555855.1,286047003.6,N
1680555875.8,286047003.4,N
1680555895.7,286047006.5,N
1680555915.5,286047009.8,N
1680555935.4,286047013.9,Y
1680555955.2,286047012.1,P
1680555975.0,286047012.1,P
1680555975.9,286047012.1,P
1680555995.8,286047003.1,N
1680556015.6,286047001.5,N
1680556035.5,286047003.1,N
1680556055.3,286047002.7,N
1680556075.1,286047003.4,N
1680556095.9,286047005.1,N
1680556115.7,286047004.9,N
1680556135.5,286046999.8,N
1680556155.4,286046998.6,N
1680556175.2,286047003.7,N
1680556195.0,286047010.5,N
1680556196.0,286047010.5,N
1680556215.8,286047009.8,N
1680556235.6,286047005.4,N
1680556255.5,286047008.5,N
1680556275.3,286047008.8,N
1680556295.1,286047007.8,N
1680556315.9,286047015.0,Y
1680556335.7,286047007.0,P
1680556355.6,286047007.4,P
1680556375.4,286047003.5,P
1680556395.2,286047003.1,N
1680556415.1,286047007.4,Y
1680556416.0,286047007.4,P
1680556435.8,286047004.4,P
1680556455.6,286046997.2,N
1680556475.5,286046999.1,N
1680556495.3,286047005.9,N
1680556515.2,286047004.0,N
1680556535.9,286047005.3,N
1680556555.7,286047009.8,N
1680556575.6,286047005.1,N
1680556595.4,286047006.9,N
1680556615.2,286047010.1,N
1680556635.1,286047009.2,N
1680556636.0,286047009.2,N
1680556655.8,286047008.9,N
1680556675.7,286047009.0,N
1680556695.5,286047008.2,N
1680556715.3,286047012.6,Y
1680556735.2,286047008.6,P
1680556755.9,286047007.4,P
1680556775.7,286047003.7,P
1680556795.6,286047007.4,Y
1680556815.4,286047005.7,P
1680556835.3,286047006.0,P
1680556855.1,286047002.9,P
1680556856.0,286047002.9,N
1680556875.8,286047006.8,Y
1680556895.7,286046992.5,P
1680556915.5,286046996.2,N
1680556935.3,286046999.5,N
1680556955.2,286046998.5,N
1680556975.0,286046998.7,N
1680556975.9,286046998.7,N
1680556995.8,286046996.6,N
1680557015.6,286047005.5,N
1680557035.4,286047006.2,N
1680557055.3,286047008.4,N
1680557075.1,286047003.8,N
1680557095.8,286047001.8,N
1680557115.7,286047000.9,N
1680557135.5,286047002.8,N
1680557155.4,286046997.1,N
1680557175.2,286047003.2,N
1680557195.0,286047002.0,N
1680557195.9,286047002.0,N
1680557215.8,286047004.3,N
1680557235.6,286046996.3,N
1680557255.5,286046997.3,N
1680557275.3,286046999.9,N
1680557295.1,286046998.2,N
1680557315.9,286047001.5,N
1680557335.7,286047002.8,N
1680557355.6,286047001.3,N
1680557375.4,286047002.6,N
1680557395.2,286046998.8,N
1680557415.1,286046995.0,N
1680557416.0,286046995.0,N
1680557435.8,286047000.8,N
1680557455.6,286047004.6,N
1680557475.5,286046999.8,N
1680557495.3,286046999.5,N
1680557515.2,286046998.3,N
1680557535.9,286047003.2,N
1680557555.7,286047006.0,N
1680557575.6,286047002.9,N
1680557595.4,286047003.6,N
1680557615.2,286047010.0,Y
1680557635.1,286047006.6,P
1680557636.0,286047006.6,N
1680557655.8,286047008.5,P
1680557675.7,286047012.1,Y
1680557695.5,286047008.0,P
1680557715.3,286047008.2,P
1680557735.2,286047005.7,P
1680557755.0,286047002.1,N
1680557755.9,286047002.1,N
1680557775.8,286047006.3,N
1680557795.6,286047006.2,N
1680557815.4,286047010.2,Y
1680557835.3,286047000.6,P
1680557855.1,286046997.6,N
1680557875.9,286046998.9,N
1680557895.7,286047003.8,N
1680557915.5,286047004.2,N
1680557935.4,286046998.7,N
1680557955.2,286046995.3,N
1680557975.0,286046996.6,N
1680557975.9,286046996.6,N
1680557995.8,286047002.5,N
1680558015.6,286047000.3,N
1680558035.5,286047000.4,N
1680558055.3,286047002.8,N
1680558075.1,286047004.2,N
1680558095.9,286046996.7,N
1680558115.7,286046997.2,N
1680558135.5,286047004.4,N
1680558155.4,286047003.2,N
1680558175.2,286047000.6,N
1680558195.0,286047003.9,N
1680558196.0,286047003.9,N
1680558215.8,286046999.9,N
1680558235.6,286046999.5,N
1680558255.5,286047001.7,N
1680558275.3,286046999.9,N
1680558295.1,286046999.3,N
1680558315.9,286046995.3,N
1680558335.7,286047001.7,N
1680558355.5,286047004.6,N
1680558375.4,286047000.7,N
1680558395.2,286046998.7,N
1680558415.1,286047001.1,N
1680558416.0,286047001.1,N
1680558435.8,286047001.5,N
1680558455.6,286047003.3,N
1680558475.5,286047004.2,N
1680558495.3,286047002.1,N
1680558515.1,286047003.2,N
1680558535.9,286047001.8,N
1680558555.7,286046999.8,N
1680558575.6,286047002.3,N
1680558595.4,286047005.6,N
1680558615.2,286047005.9,N
1680558635.1,286047001.9,N
1680558636.0,286047001.9,N
1680558655.8,286047003.4,N
1680558675.7,286047004.4,N
1680558695.5,286047004.2,N
1680558715.3,286046999.7,N
1680558735.2,286046998.4,N
1680558755.9,286047004.4,N
1680558775.7,286047004.3,N
1680558795.6,286047004.9,N
1680558815.4,286047005.0,N
1680558835.3,286047002.7,N
1680558855.1,286046995.0,N
1680558856.0,286046995.0,N
1680558875.8,286047000.0,N
1680558895.7,286047001.8,N
1680558915.5,286046997.9,N
1680558935.3,286047002.6,N
1680558955.2,286047002.2,N
1680558975.0,286047001.5,N
1680558975.9,286047001.5,N
1680558995.8,286046998.6,N
1680559015.6,286047001.9,N
1680559035.4,286047003.6,N
1680559055.3,286047004.6,N
1680559075.1,286046999.7,N
1680559095.9,286046996.5,N
1680559115.7,286046997.9,N
1680559135.5,286046995.4,N
1680559155.4,286046999.6,N
1680559175.2,286046999.8,N
1680559195.0,286047003.5,N
1680559196.0,286047003.5,N
